Location: Breckenridge
(39.4820°N, 106.0380°W)
Time: 12:49:25
(UTC-06:00)

N. Korean satellite - Visible Passes

Search period start: 23 October 2019 00:00
Search period end: 02 November 2019 00:00
Orbit: 455 x 508 km, 97.2° (Epoch: 22 October)

Date Brightness Start Highest point End Pass type
(mag) Time Alt. Az. Time Alt. Az. Time Alt. Az.
23 Oct 10.0 19:08:22 10° SW 19:10:30 16° W 19:12:39 10° NW visible
24 Oct 8.3 06:34:01 10° NNE 06:37:27 38° E 06:40:54 10° SSE visible
24 Oct 8.6 18:41:56 10° SSW 18:45:03 33° W 18:48:13 10° NNW visible
25 Oct 9.8 06:09:25 10° NE 06:12:02 19° E 06:14:41 10° SE visible
27 Oct 7.1 06:51:17 10° NNE 06:54:56 68° E 06:58:36 10° S visible
27 Oct 9.6 18:59:59 10° SW 19:02:33 20° W 19:05:09 10° NW visible
28 Oct 8.8 06:26:16 10° NNE 06:29:34 31° E 06:32:52 10° SSE visible
28 Oct 8.0 18:33:51 10° S 18:37:07 43° W 18:40:27 10° NNW visible
29 Oct 10.1 06:01:54 10° NE 06:04:07 15° E 06:06:20 10° SE visible
30 Oct 10.2 19:18:43 10° WSW 19:20:04 12° W 19:21:26 10° WNW visible
31 Oct 7.6 06:43:24 10° NNE 06:47:01 53° E 06:50:39 10° S visible
31 Oct 9.2 18:51:41 10° SSW 18:54:34 25° W 18:57:30 10° NW visible
01 Nov 9.2 06:18:32 10° NE 06:21:37 25° E 06:24:42 10° SSE visible
